This is the latest recevied weather packets stored in our database for station/object K7TUS-6. If no packets are shown the sender has not sent any weather packets the latest 10 day(s).
| Time | Temp. | Humidity | Pressure | Rain* | Wind** | Luminosity | Snow |
|---|---|---|---|---|---|---|---|
| 1777811708 | 11.67° C | 20% | 984.7 hPa | - | - | - | - |
| 1777811407 | 11.67° C | 20% | 984.7 hPa | - | - | - | - |
| 1777811107 | 11.67° C | 21% | 984.4 hPa | - | - | - | - |
| 1777810806 | 11.11° C | 19% | 984.8 hPa | - | - | - | - |
| 1777810506 | 11.11° C | 19% | 984.3 hPa | - | - | - | - |
| 1777810205 | 11.11° C | 17% | 985 hPa | - | - | - | - |
| 1777809904 | 11.11° C | 17% | 985 hPa | - | - | - | - |
| 1777809604 | 11.11° C | 19% | 984.2 hPa | - | - | - | - |
| 1777809003 | 11.11° C | 19% | 985.4 hPa | - | - | - | - |
| 1777808702 | 11.11° C | 17% | 984.1 hPa | - | - | - | - |
| 1777808408 | 11.67° C | 20% | 984 hPa | - | - | - | - |
| 1777808107 | 11.11° C | 20% | 984.3 hPa | - | - | - | - |
| 1777807506 | 11.11° C | 21% | 983.5 hPa | - | - | - | - |
| 1777807206 | 11.11° C | 21% | 984.1 hPa | - | - | - | - |
| 1777806905 | 11.11° C | 20% | 984 hPa | - | - | - | - |
| 1777806605 | 11.11° C | 20% | 984.4 hPa | - | - | - | - |
| 1777806304 | 11.11° C | 21% | 984.5 hPa | - | - | - | - |
| 1777806003 | 10.56° C | 22% | 985.1 hPa | - | - | - | - |
| 1777805703 | 11.11° C | 22% | 984.6 hPa | - | - | - | - |
| 1777805408 | 11.11° C | 21% | 984.6 hPa | - | - | - | - |
| 1777805108 | 10.56° C | 20% | 984.9 hPa | - | - | - | - |
| 1777804806 | 10.56° C | 23% | 984.5 hPa | - | - | - | - |
| 1777804505 | 10° C | 23% | 984.6 hPa | - | - | - | - |
| 1777803905 | 10.56° C | 21% | 984.6 hPa | - | - | - | - |
| 1777803604 | 10.56° C | 22% | 984.7 hPa | - | - | - | - |
* Rain since midnight (hover to see other rain measurements)
** Current wind speed in m/s (hover to see current wind gust speed)